QPF
0.00 0.00 0.00 0.00 0.00 0.00 0.00 0.00 0.00 0.00 0.00 0.00 0.00 0.00 0.00 0.00 0.00 0.00 0.00 0.00 0.00 0.00 0.00 0.00 0.00 0.00 0.00 0.00 0.00 0.00 0.00 0.00 0.00 0.00 0.00 0.00 0.00 0.00 0.00 0.00 0.00 0.00 0.00 0.00 0.00
0.00 0.00 0.00 0.00 0.00 0.00 0.00 0.00 0.00 0.00 0.00 0.00 0.00 0.00 0.00 0.00 0.00 0.00 0.00 0.00 0.00 0.00 0.00 0.00 0.00 0.00 0.00 0.00 0.00 0.00 0.00 0.00 0.00 0.00 0.00 0.00 0.00 0.00 0.00 0.00 0.00 0.00 0.00 0.01 0.02
0.00 0.00 0.00 0.00 0.00 0.00 0.00 0.00 0.00 0.00 0.00 0.00 0.00 0.00 0.00 0.00 0.00 0.00 0.00 0.00 0.00 0.00 0.00 0.00 0.00 0.00 0.00 0.00 0.00 0.00 0.00 0.00 0.00 0.00 0.00 0.00 0.00 0.00 0.00 0.00 0.00 0.00 0.00 0.00 0.01
0.00 0.00 0.00 0.00 0.00 0.00 0.00 0.00 0.00 0.00 0.00 0.00 0.00 0.00 0.00 0.00 0.00 0.00 0.00 0.00 0.00 0.00 0.00 0.00 0.00 0.00 0.00 0.00 0.00 0.00 0.00 0.00 0.00 0.00 0.00 0.00 0.00 0.00 0.00 0.00 0.00 0.00 0.00 0.00 0.00
0.00 0.00 0.00 0.00 0.00 0.00 0.00 0.00 0.00 0.00 0.00 0.00 0.00 0.00 0.00 0.00 0.00 0.00 0.00 0.00 0.00 0.00 0.00 0.00 0.00 0.00 0.00 0.00 0.00 0.00 0.00 0.00 0.00 0.00 0.00 0.00 0.00 0.00 0.00 0.00 0.00 0.00 0.00 0.00 0.00
0.00 0.00 0.00 0.00 0.00 0.00 0.00 0.00 0.00 0.00 0.00 0.00 0.00 0.00 0.00 0.00 0.00 0.00 0.00 0.00 0.00 0.00 0.00 0.00 0.00 0.00 0.00 0.00 0.00 0.00 0.00 0.00 0.00 0.00 0.00 0.00 0.00 0.00 0.00 0.00 0.00 0.00 0.00 0.00 0.00
0.00 0.00 0.00 0.00 0.00 0.00 0.00 0.00 0.00 0.00 0.00 0.00 0.00 0.00 0.00 0.00 0.00 0.00 0.00 0.00 0.00 0.00 0.00 0.00 0.00 0.00 0.00 0.00 0.00 0.00 0.00 0.00 0.00 0.00 0.00 0.00 0.00 0.00 0.00 0.00 0.00 0.00 0.00 0.00 0.00
0.00 0.00 0.00 0.00 0.00 0.00 0.00 0.00 0.00 0.00 0.00 0.00 0.00 0.00 0.00 0.00 0.00 0.00 0.00 0.00 0.00 0.00 0.00 0.00 0.00 0.00 0.00 0.00 0.00 0.00 0.00 0.00 0.00 0.00 0.00 0.00 0.00 0.00 0.00 0.00 0.00 0.00 0.00 0.00 0.00
0.00 0.00 0.00 0.00 0.00 0.00 0.00 0.00 0.00 0.00 0.00 0.00 0.00 0.00 0.00 0.00 0.00 0.00 0.00 0.00 0.00 0.00 0.00 0.00 0.00 0.00 0.00 0.00 0.00 0.00 0.00 0.00 0.00 0.00 0.00 0.00 0.00 0.00 0.00 0.00 0.00 0.00 0.00 0.00 0.00
0.00 0.00 0.00 0.00 0.00 0.00 0.00 0.00 0.00 0.00 0.00 0.00 0.00 0.00 0.00 0.00 0.00 0.00 0.00 0.00 0.00 0.00 0.00 0.00 0.00 0.00 0.00 0.00 0.00 0.00 0.00 0.00 0.00 0.00 0.00 0.00 0.00 0.00 0.00 0.00 0.00 0.00 0.00 0.00 0.00
0.00 0.00 0.00 0.00 0.00 0.00 0.00 0.00 0.00 0.00 0.00 0.00 0.00 0.00 0.00 0.00 0.00 0.00 0.00 0.00 0.00 0.00 0.00 0.00 0.00 0.00 0.00 0.00 0.00 0.00 0.00 0.00 0.00 0.00 0.00 0.00 0.00 0.00 0.00 0.00 0.00 0.00 0.00 0.00 0.00
0.00 0.00 0.00 0.00 0.00 0.00 0.00 0.00 0.00 0.00 0.00 0.00 0.00 0.00 0.00 0.00 0.00 0.00 0.00 0.00 0.00 0.00 0.00 0.00 0.00 0.00 0.00 0.00 0.00 0.00 0.00 0.00 0.00 0.00 0.00 0.00 0.00 0.00 0.00 0.00 0.00 0.00 0.00 0.00 0.00
0.00 0.00 0.00 0.00 0.00 0.00 0.00 0.00 0.00 0.00 0.00 0.00 0.00 0.00 0.00 0.00 0.00 0.00 0.00 0.00 0.00 0.00 0.00 0.00 0.00 0.00 0.00 0.00 0.00 0.00 0.00 0.00 0.00 0.00 0.00 0.00 0.00 0.00 0.00 0.00 0.00 0.00 0.00 0.00 0.00
0.00 0.00 0.00 0.00 0.00 0.00 0.00 0.00 0.00 0.00 0.00 0.00 0.00 0.00 0.00 0.00 0.00 0.00 0.00 0.00 0.00 0.00 0.00 0.00 0.00 0.00 0.00 0.00 0.00 0.00 0.00 0.00 0.00 0.00 0.00 0.00 0.00 0.00 0.00 0.00 0.00 0.00 0.00 0.00 0.00
0.00 0.00 0.00 0.00 0.00 0.00 0.00 0.00 0.00 0.00 0.00 0.00 0.00 0.00 0.00 0.00 0.00 0.00 0.00 0.00 0.00 0.00 0.00 0.00 0.00 0.00 0.00 0.00 0.00 0.00 0.00 0.00 0.00 0.00 0.00 0.00 0.00 0.00 0.00 0.00 0.00 0.00 0.00 0.00 0.00
0.00 0.00 0.00 0.00 0.00 0.00 0.00 0.00 0.00 0.00 0.00 0.00 0.00 0.00 0.00 0.00 0.00 0.00 0.00 0.00 0.00 0.00 0.00 0.00 0.00 0.00 0.00 0.00 0.00 0.00 0.00 0.00 0.00 0.00 0.00 0.00 0.00 0.00 0.00 0.00 0.00 0.00 0.00 0.00 0.00
0.00 0.00 0.00 0.00 0.00 0.00 0.00 0.00 0.00 0.00 0.00 0.00 0.00 0.00 0.00 0.00 0.00 0.00 0.00 0.00 0.00 0.00 0.00 0.00 0.00 0.00 0.00 0.00 0.00 0.00 0.00 0.00 0.00 0.00 0.00 0.00 0.00 0.00 0.00 0.00 0.00 0.00 0.00 0.00 0.00
0.00 0.00 0.00 0.00 0.00 0.00 0.00 0.00 0.00 0.00 0.00 0.00 0.00 0.00 0.00 0.00 0.00 0.00 0.00 0.00 0.00 0.00 0.00 0.00 0.00 0.00 0.00 0.00 0.00 0.00 0.00 0.00 0.00 0.00 0.00 0.00 0.00 0.00 0.00 0.00 0.00 0.00 0.00 0.00 0.00
0.00 0.00 0.00 0.00 0.00 0.00 0.00 0.00 0.00 0.00 0.00 0.00 0.00 0.00 0.00 0.00 0.00 0.00 0.00 0.00 0.00 0.00 0.00 0.00 0.00 0.00 0.00 0.00 0.00 0.00 0.00 0.00 0.00 0.00 0.00 0.00 0.00 0.00 0.00 0.00 0.00 0.00 0.00 0.00 0.00
0.00 0.00 0.00 0.00 0.00 0.00 0.00 0.00 0.00 0.00 0.00 0.00 0.00 0.00 0.00 0.00 0.00 0.00 0.00 0.00 0.00 0.00 0.00 0.00 0.00 0.00 0.00 0.00 0.00 0.00 0.00 0.00 0.00 0.00 0.00 0.00 0.00 0.00 0.00 0.00 0.00 0.00 0.00 0.00 0.00
0.00 0.00 0.00 0.00 0.00 0.00 0.00 0.00 0.00 0.00 0.00 0.00 0.00 0.00 0.00 0.00 0.00 0.00 0.00 0.00 0.00 0.00 0.00 0.00 0.00 0.00 0.00 0.00 0.00 0.00 0.00 0.00 0.00 0.00 0.00 0.00 0.00 0.00 0.00 0.00 0.00 0.00 0.00 0.00 0.00
0.00 0.00 0.00 0.00 0.00 0.00 0.00 0.00 0.00 0.00 0.00 0.00 0.00 0.00 0.00 0.00 0.00 0.00 0.00 0.00 0.00 0.00 0.00 0.00 0.00 0.00 0.00 0.00 0.00 0.00 0.00 0.00 0.00 0.00 0.00 0.00 0.00 0.00 0.00 0.00 0.00 0.00 0.00 0.00 0.00
0.00 0.00 0.00 0.00 0.00 0.00 0.00 0.00 0.00 0.00 0.00 0.00 0.00 0.00 0.00 0.00 0.00 0.00 0.00 0.00 0.00 0.00 0.00 0.00 0.00 0.00 0.00 0.00 0.00 0.00 0.00 0.00 0.00 0.00 0.00 0.00 0.00 0.00 0.00 0.00 0.00 0.00 0.00 0.00 0.00
0.00 0.00 0.00 0.00 0.00 0.00 0.00 0.00 0.00 0.00 0.00 0.00 0.00 0.00 0.00 0.00 0.00 0.00 0.00 0.00 0.00 0.00 0.00 0.00 0.00 0.00 0.00 0.00 0.00 0.00 0.00 0.00 0.00 0.00 0.00 0.00 0.00 0.00 0.00 0.00 0.00 0.00 0.00 0.00 0.00
0.00 0.00 0.00 0.00 0.00 0.00 0.00 0.00 0.00 0.00 0.00 0.00 0.00 0.00 0.00 0.00 0.00 0.00 0.00 0.00 0.00 0.00 0.00 0.00 0.00 0.00 0.00 0.00 0.00 0.00 0.00 0.00 0.00 0.00 0.00 0.00 0.00 0.00 0.00 0.00 0.00 0.00 0.00 0.00 0.00
0.00 0.00 0.00 0.00 0.00 0.00 0.00 0.00 0.00 0.00 0.00 0.00 0.00 0.00 0.00 0.00 0.00 0.00 0.00 0.00 0.00 0.00 0.00 0.00 0.00 0.00 0.00 0.00 0.00 0.00 0.00 0.00 0.00 0.00 0.00 0.00 0.00 0.00 0.00 0.00 0.00 0.00 0.00 0.00 0.00
0.00 0.00 0.00 0.00 0.00 0.00 0.00 0.00 0.00 0.00 0.00 0.00 0.00 0.00 0.00 0.00 0.00 0.00 0.00 0.00 0.00 0.00 0.00 0.00 0.00 0.00 0.00 0.00 0.00 0.00 0.00 0.00 0.00 0.00 0.00 0.00 0.00 0.00 0.00 0.00 0.00 0.00 0.00 0.00 0.00
MSLP
1022.35 1022.23 1022.09 1021.76 1021.57 1021.22 1020.92 1020.60 1020.46 1020.19 1020.01 1019.90 1019.83 1019.66 1019.47 1019.11 1018.62 1018.17 1017.62 1017.00 1016.66 1016.53 1016.45 1016.52 1016.47 1016.68 1016.75 1016.75 1016.59 1017.01 1017.82 1017.66 1016.78 1016.07 1015.25 1014.31 1014.12 1012.83 1012.25 1011.64 1011.18 1011.01 1011.08 1010.92 1011.05
1022.39 1022.15 1021.82 1021.59 1021.30 1021.02 1020.69 1020.41 1020.22 1019.97 1019.78 1019.70 1019.57 1019.48 1019.46 1019.11 1018.95 1017.97 1017.15 1016.61 1016.37 1016.37 1016.63 1016.70 1016.61 1016.78 1017.18 1016.95 1016.85 1017.03 1017.52 1016.94 1016.11 1015.40 1015.01 1014.60 1014.43 1014.05 1013.34 1012.60 1011.96 1011.68 1011.66 1011.61 1011.57
1022.26 1022.14 1021.93 1021.48 1021.22 1020.95 1020.58 1020.29 1020.00 1019.63 1019.44 1019.57 1019.45 1019.33 1019.48 1019.33 1018.93 1017.54 1016.91 1016.55 1016.39 1016.44 1016.77 1016.80 1016.61 1016.87 1017.20 1017.14 1016.97 1016.74 1016.58 1016.23 1015.60 1015.09 1014.87 1014.60 1014.39 1014.08 1013.77 1013.30 1012.59 1012.58 1012.43 1012.13 1012.21
1022.27 1022.01 1021.77 1021.42 1021.00 1020.75 1020.43 1020.19 1019.82 1019.49 1019.30 1019.15 1019.36 1019.22 1019.15 1019.49 1018.70 1017.37 1016.97 1016.54 1016.38 1016.29 1016.62 1016.65 1016.68 1017.10 1017.44 1017.38 1017.02 1016.92 1016.18 1015.73 1015.21 1014.93 1015.02 1014.73 1014.32 1014.06 1013.92 1013.45 1012.73 1012.54 1012.75 1012.57 1012.63
1022.19 1022.01 1021.62 1021.25 1020.86 1020.58 1020.21 1020.01 1019.67 1019.31 1019.08 1019.04 1019.11 1019.12 1019.33 1019.09 1017.87 1017.23 1017.14 1016.76 1016.43 1016.49 1016.80 1016.81 1017.02 1017.45 1017.61 1017.63 1017.36 1017.08 1016.72 1016.10 1015.42 1015.07 1014.93 1014.74 1014.34 1014.24 1013.57 1013.23 1012.67 1012.42 1012.63 1012.67 1012.86
1022.16 1021.83 1021.51 1021.18 1020.77 1020.33 1020.03 1019.67 1019.37 1019.01 1018.68 1018.64 1019.05 1019.15 1019.53 1018.66 1017.44 1017.17 1017.38 1017.04 1016.59 1016.69 1016.99 1017.08 1017.26 1017.50 1017.79 1017.66 1017.81 1017.46 1017.06 1016.39 1015.56 1015.20 1014.72 1014.77 1014.32 1014.34 1013.28 1012.99 1012.85 1012.74 1012.49 1012.73 1012.78
1022.04 1021.75 1021.38 1021.12 1020.66 1020.21 1019.79 1019.46 1019.07 1018.62 1018.63 1018.51 1018.82 1019.15 1019.16 1018.10 1017.51 1017.20 1017.35 1017.40 1016.93 1016.86 1017.19 1017.27 1017.36 1017.60 1018.09 1017.95 1017.70 1017.51 1017.37 1016.45 1015.70 1015.06 1014.66 1014.38 1014.17 1013.53 1012.45 1012.83 1012.79 1012.76 1012.66 1012.37 1012.39
1021.69 1021.46 1021.26 1020.92 1020.47 1019.95 1019.60 1019.07 1018.84 1018.66 1018.73 1018.65 1018.84 1019.27 1018.52 1017.53 1017.64 1017.51 1017.47 1017.36 1017.25 1017.06 1017.21 1017.25 1017.34 1017.89 1018.23 1018.08 1018.15 1018.06 1017.89 1017.24 1015.60 1015.09 1014.56 1014.71 1014.25 1013.24 1012.88 1013.03 1013.20 1012.99 1012.92 1012.62 1012.15
1021.58 1021.33 1021.15 1020.58 1020.16 1019.71 1019.40 1018.83 1018.74 1018.66 1018.78 1018.82 1019.25 1019.02 1018.28 1017.52 1017.61 1017.44 1017.59 1017.59 1017.45 1017.37 1017.33 1017.47 1017.56 1018.24 1018.74 1018.95 1019.09 1018.87 1018.62 1017.73 1016.51 1015.60 1015.51 1015.44 1014.88 1013.79 1013.24 1013.38 1013.38 1013.10 1012.98 1012.91 1012.44
1021.59 1021.01 1020.79 1020.44 1019.74 1019.40 1018.99 1018.56 1018.67 1018.79 1018.91 1018.98 1019.02 1019.25 1018.22 1017.79 1017.67 1017.60 1017.57 1017.66 1017.82 1017.77 1017.89 1018.07 1018.54 1018.87 1019.54 1019.86 1019.52 1019.22 1018.97 1018.10 1017.45 1016.16 1015.69 1015.69 1015.22 1014.23 1013.85 1013.82 1013.51 1013.22 1013.04 1013.16 1013.07
1021.34 1021.03 1020.57 1020.25 1019.57 1019.26 1018.88 1018.84 1019.43 1019.70 1019.34 1019.07 1018.94 1018.70 1018.24 1017.98 1017.76 1017.73 1017.65 1017.85 1018.02 1018.28 1018.60 1018.73 1019.35 1019.36 1019.17 1019.37 1019.25 1019.11 1018.97 1018.60 1017.67 1016.90 1016.82 1016.29 1015.90 1014.54 1014.16 1014.04 1013.68 1013.50 1013.85 1014.04 1014.04
1021.33 1020.90 1020.53 1020.12 1019.47 1019.51 1019.06 1020.03 1020.63 1021.06 1020.30 1019.20 1018.73 1018.56 1018.24 1018.14 1018.04 1017.88 1017.77 1018.22 1018.41 1018.75 1018.92 1019.40 1019.18 1018.53 1018.73 1018.96 1019.08 1019.11 1019.04 1018.56 1017.62 1016.98 1017.06 1016.69 1016.31 1015.51 1015.29 1015.60 1015.07 1015.21 1015.29 1015.25 1014.84
1021.31 1020.82 1020.37 1020.01 1019.63 1019.99 1020.25 1020.56 1020.68 1020.87 1020.41 1019.37 1018.64 1018.31 1018.32 1018.34 1018.13 1017.98 1018.13 1018.21 1018.57 1018.92 1019.21 1019.40 1018.60 1017.99 1018.41 1018.58 1018.70 1018.72 1018.71 1018.62 1018.42 1017.81 1017.55 1017.33 1016.87 1016.49 1016.52 1016.19 1016.25 1016.56 1016.46 1016.11 1015.91
1021.14 1020.69 1020.24 1020.06 1020.13 1020.53 1021.18 1021.09 1020.99 1021.10 1020.90 1019.90 1018.82 1018.08 1018.30 1018.18 1018.37 1018.08 1017.98 1018.53 1018.79 1018.94 1019.11 1019.00 1018.21 1018.06 1018.15 1018.21 1018.30 1018.59 1018.24 1018.61 1018.83 1019.04 1019.28 1018.56 1018.86 1017.73 1017.55 1017.27 1017.27 1017.71 1017.52 1017.35 1017.04
1021.06 1020.62 1020.23 1020.20 1020.61 1021.17 1021.56 1021.10 1021.18 1021.36 1021.27 1020.15 1018.88 1018.02 1018.04 1018.62 1018.57 1018.38 1018.36 1018.47 1018.89 1019.12 1019.35 1018.73 1018.21 1018.00 1017.95 1017.83 1017.93 1018.25 1018.38 1019.00 1019.53 1020.09 1020.45 1020.02 1020.26 1018.42 1018.10 1018.52 1018.78 1018.88 1018.79 1018.52 1018.11
1020.93 1020.73 1020.52 1020.52 1021.04 1021.50 1021.16 1021.33 1021.59 1022.23 1021.94 1020.81 1019.73 1019.05 1018.87 1018.94 1018.90 1018.69 1018.88 1018.91 1019.26 1019.52 1019.43 1019.04 1018.41 1018.14 1017.85 1017.69 1017.87 1018.36 1019.01 1019.99 1020.86 1021.49 1022.02 1020.72 1020.34 1019.12 1018.69 1019.00 1019.69 1019.85 1019.70 1019.41 1018.94
1020.89 1020.56 1020.94 1021.06 1021.47 1021.18 1021.30 1021.71 1022.98 1023.49 1023.17 1022.37 1021.60 1020.99 1020.33 1020.02 1019.73 1019.51 1019.88 1020.26 1020.59 1020.80 1020.51 1019.66 1018.70 1018.10 1017.93 1018.07 1018.27 1018.91 1020.29 1022.35 1023.18 1023.67 1022.63 1021.23 1020.90 1020.36 1019.78 1020.02 1020.22 1020.59 1020.70 1020.40 1019.94
1020.46 1020.40 1020.60 1020.95 1021.11 1020.98 1021.75 1022.73 1024.35 1024.37 1023.94 1022.98 1022.68 1022.31 1022.09 1021.59 1021.06 1020.74 1021.08 1021.52 1021.54 1021.70 1021.81 1020.98 1019.76 1018.65 1018.18 1018.14 1018.47 1019.46 1020.81 1022.57 1023.43 1024.26 1023.34 1021.61 1020.77 1020.89 1020.64 1020.74 1020.74 1020.97 1021.25 1021.02 1020.62
1020.44 1020.92 1020.81 1020.82 1021.11 1021.08 1022.08 1023.67 1023.73 1023.94 1023.66 1023.50 1023.65 1023.71 1023.61 1023.07 1022.65 1022.17 1022.24 1022.39 1022.31 1022.34 1022.39 1021.89 1020.76 1019.42 1018.82 1018.60 1018.92 1019.86 1020.86 1021.55 1023.30 1025.20 1024.19 1022.22 1021.54 1021.56 1021.18 1021.36 1021.30 1021.37 1021.44 1021.49 1021.41
1021.13 1021.27 1020.83 1020.40 1020.79 1021.62 1022.96 1023.93 1023.79 1023.16 1023.14 1023.33 1023.97 1024.81 1024.89 1024.44 1023.96 1023.35 1023.01 1022.94 1022.87 1022.80 1022.76 1022.72 1022.25 1020.80 1019.89 1019.46 1019.52 1019.91 1020.87 1022.31 1023.96 1025.08 1024.68 1022.48 1021.30 1019.96 1021.00 1021.47 1021.71 1021.78 1021.93 1021.92 1021.84
1021.33 1021.66 1020.90 1020.64 1020.84 1022.23 1023.90 1024.29 1023.59 1022.90 1022.77 1023.29 1023.84 1024.79 1025.41 1025.43 1025.04 1024.41 1023.87 1023.63 1023.14 1023.16 1023.15 1023.39 1023.36 1022.39 1021.39 1021.03 1021.13 1021.28 1021.66 1022.82 1023.76 1024.36 1024.32 1023.41 1020.98 1019.29 1020.38 1021.43 1021.71 1021.98 1022.10 1022.16 1022.02
1021.47 1022.31 1021.09 1020.98 1022.35 1024.13 1024.64 1023.92 1023.17 1022.91 1022.83 1023.09 1023.59 1024.54 1025.41 1025.99 1025.95 1025.29 1024.39 1023.89 1023.60 1023.48 1023.90 1024.31 1024.51 1024.39 1023.32 1022.61 1022.53 1022.49 1022.89 1023.70 1024.72 1025.20 1024.93 1023.91 1021.15 1020.02 1020.64 1021.28 1021.55 1021.87 1022.04 1022.10 1021.98
1021.81 1021.96 1021.18 1021.25 1023.18 1024.99 1024.87 1024.13 1023.39 1023.26 1023.16 1023.34 1023.80 1024.43 1025.45 1026.27 1026.77 1026.15 1025.10 1024.57 1024.30 1024.32 1024.56 1024.98 1025.62 1025.96 1025.05 1024.15 1023.71 1023.75 1024.03 1024.80 1025.68 1026.47 1026.00 1025.08 1021.92 1021.00 1020.87 1021.27 1021.71 1021.80 1022.09 1022.10 1021.88
1022.02 1022.86 1022.69 1022.69 1023.37 1023.98 1024.94 1024.34 1023.82 1023.31 1023.33 1023.35 1023.82 1024.55 1025.70 1026.49 1026.74 1026.77 1026.05 1025.33 1025.09 1025.10 1025.22 1025.52 1026.47 1026.70 1026.50 1025.97 1025.68 1025.24 1025.06 1025.55 1026.62 1027.67 1026.81 1024.50 1023.12 1022.25 1021.76 1021.56 1021.72 1021.99 1021.94 1022.20 1021.95
1021.69 1022.91 1023.20 1023.88 1024.05 1023.97 1023.91 1023.87 1023.75 1023.68 1023.41 1023.63 1024.05 1024.63 1025.65 1027.07 1027.40 1027.30 1026.77 1026.26 1025.85 1025.68 1025.90 1026.65 1027.56 1027.55 1027.23 1026.91 1026.51 1025.83 1025.16 1025.78 1026.35 1026.57 1026.74 1023.77 1024.06 1021.89 1022.43 1021.97 1021.23 1021.72 1022.05 1022.21 1022.22
1021.30 1022.35 1023.12 1023.48 1023.50 1023.72 1023.66 1023.68 1023.23 1023.48 1023.41 1023.74 1023.97 1024.37 1025.30 1026.25 1026.44 1026.84 1026.84 1026.98 1026.51 1026.64 1026.75 1027.35 1027.71 1027.91 1027.69 1027.41 1026.90 1025.97 1024.45 1025.24 1025.22 1025.41 1025.44 1024.36 1023.01 1021.99 1021.73 1021.86 1021.90 1021.94 1021.82 1021.50 1021.16
1020.64 1020.96 1021.36 1023.27 1023.60 1023.75 1023.34 1022.93 1022.76 1023.14 1023.30 1023.17 1023.71 1024.31 1024.88 1025.00 1025.57 1025.78 1026.17 1026.38 1026.64 1026.87 1027.36 1027.78 1028.21 1028.77 1028.05 1027.47 1027.12 1025.52 1023.10 1023.65 1023.63 1023.63 1023.79 1023.60 1021.37 1021.73 1021.40 1021.46 1021.61 1021.61 1021.48 1021.55 1021.27
Thickness
5601 5602 5601 5602 5602 5604 5604 5604 5602 5602 5600 5597 5594 5592 5590 5591 5593 5594 5596 5599 5598 5594 5591 5587 5583 5576 5573 5572 5578 5574 5557 5559 5576 5584 5592 5605 5603 5622 5631 5639 5646 5651 5654 5663 5667
5595 5597 5598 5598 5598 5599 5600 5599 5598 5597 5595 5592 5590 5587 5583 5584 5583 5588 5593 5594 5593 5589 5583 5578 5575 5569 5556 5562 5565 5560 5548 5562 5578 5586 5589 5592 5598 5604 5612 5618 5633 5638 5644 5649 5656
5591 5591 5591 5593 5594 5593 5594 5594 5593 5593 5592 5587 5584 5582 5576 5576 5577 5587 5587 5588 5587 5583 5576 5571 5569 5562 5554 5556 5558 5558 5555 5566 5575 5581 5585 5587 5590 5601 5604 5609 5624 5623 5629 5639 5642
5585 5586 5586 5587 5589 5589 5588 5587 5586 5586 5585 5583 5577 5575 5573 5568 5580 5580 5580 5581 5581 5579 5572 5567 5563 5554 5546 5546 5552 5549 5560 5564 5572 5575 5574 5578 5589 5592 5595 5606 5616 5618 5622 5628 5628
5580 5580 5581 5583 5583 5583 5582 5580 5580 5580 5579 5576 5572 5570 5566 5565 5573 5575 5571 5573 5574 5571 5563 5560 5555 5547 5540 5539 5541 5545 5548 5554 5561 5564 5566 5571 5576 5579 5590 5599 5609 5613 5618 5621 5619
5573 5574 5575 5575 5576 5577 5576 5576 5574 5575 5574 5571 5565 5562 5555 5562 5568 5569 5564 5565 5567 5564 5558 5554 5549 5544 5538 5537 5533 5534 5535 5543 5552 5555 5561 5561 5569 5574 5589 5594 5598 5603 5607 5609 5613
5565 5566 5568 5567 5568 5569 5569 5569 5569 5570 5566 5565 5560 5556 5552 5560 5562 5562 5559 5557 5559 5557 5551 5549 5546 5541 5532 5529 5531 5531 5526 5535 5543 5551 5553 5559 5562 5571 5587 5587 5591 5595 5598 5603 5607
5560 5560 5559 5559 5560 5562 5562 5564 5563 5561 5557 5556 5552 5548 5547 5558 5556 5555 5552 5551 5551 5551 5548 5546 5543 5536 5531 5530 5522 5522 5521 5517 5543 5547 5551 5551 5550 5571 5578 5581 5582 5586 5588 5591 5599
5552 5552 5551 5554 5554 5555 5555 5557 5555 5553 5548 5547 5542 5542 5548 5552 5550 5550 5546 5545 5544 5544 5543 5541 5538 5528 5525 5513 5501 5507 5502 5517 5526 5538 5538 5540 5540 5561 5569 5570 5572 5578 5581 5585 5590
5541 5546 5545 5545 5549 5548 5549 5550 5547 5544 5540 5538 5537 5534 5541 5543 5543 5543 5541 5539 5535 5535 5532 5531 5516 5507 5497 5493 5504 5514 5508 5516 5514 5530 5532 5528 5532 5551 5556 5555 5562 5569 5575 5576 5580
5535 5536 5537 5538 5542 5540 5543 5540 5535 5532 5531 5534 5532 5532 5535 5535 5536 5535 5534 5531 5529 5526 5515 5519 5505 5499 5505 5501 5510 5513 5508 5501 5510 5521 5520 5523 5519 5543 5543 5546 5555 5562 5559 5559 5561
5525 5527 5528 5529 5534 5530 5534 5522 5515 5513 5523 5525 5526 5525 5525 5526 5524 5525 5527 5521 5519 5508 5512 5503 5498 5511 5510 5507 5503 5498 5500 5498 5511 5524 5520 5522 5524 5528 5530 5522 5526 5529 5537 5540 5549
5514 5517 5520 5520 5522 5519 5514 5513 5511 5508 5514 5519 5520 5520 5517 5516 5516 5513 5515 5514 5508 5505 5501 5491 5512 5515 5511 5513 5509 5505 5502 5500 5503 5508 5511 5510 5513 5515 5516 5519 5520 5517 5522 5528 5533
5506 5509 5511 5510 5509 5506 5499 5501 5499 5496 5480 5505 5509 5511 5509 5510 5504 5509 5508 5504 5502 5494 5492 5489 5503 5507 5503 5504 5500 5493 5501 5501 5503 5491 5471 5500 5463 5501 5502 5504 5507 5503 5504 5510 5515
5497 5499 5502 5500 5497 5491 5490 5491 5489 5485 5442 5499 5502 5505 5503 5498 5497 5498 5496 5494 5490 5493 5491 5491 5500 5500 5497 5498 5497 5489 5502 5498 5495 5483 5468 5476 5445 5489 5498 5490 5485 5485 5487 5491 5498
5487 5488 5491 5490 5486 5482 5483 5479 5474 5446 5439 5474 5483 5481 5488 5486 5487 5486 5484 5483 5481 5479 5480 5475 5486 5490 5487 5491 5493 5491 5487 5467 5458 5456 5387 5464 5463 5477 5486 5484 5471 5472 5473 5476 5482
5478 5480 5476 5474 5469 5472 5471 5466 5435 5413 5446 5441 5456 5459 5463 5467 5472 5475 5464 5450 5453 5437 5453 5462 5473 5481 5482 5478 5476 5475 5446 5373 5390 5372 5404 5458 5460 5464 5460 5461 5460 5456 5456 5460 5465
5472 5471 5470 5465 5463 5463 5456 5439 5412 5381 5393 5444 5444 5445 5446 5445 5455 5454 5443 5431 5433 5436 5419 5425 5432 5467 5472 5470 5461 5454 5438 5397 5384 5395 5426 5451 5439 5435 5441 5443 5447 5446 5443 5448 5452
5460 5458 5457 5456 5452 5453 5439 5388 5413 5403 5423 5432 5424 5402 5402 5427 5429 5432 5425 5416 5419 5419 5419 5408 5434 5444 5458 5460 5455 5443 5424 5443 5374 5345 5379 5432 5437 5431 5430 5425 5428 5432 5431 5431 5436
5442 5441 5445 5448 5443 5435 5403 5418 5403 5430 5426 5423 5410 5384 5356 5370 5410 5418 5409 5411 5408 5410 5407 5407 5392 5425 5435 5442 5443 5439 5436 5404 5368 5366 5379 5409 5432 5446 5421 5411 5414 5413 5411 5417 5420
5427 5423 5430 5431 5429 5411 5379 5375 5406 5417 5417 5410 5383 5368 5382 5359 5385 5382 5394 5393 5398 5395 5395 5390 5386 5402 5413 5418 5407 5395 5384 5385 5395 5387 5363 5359 5414 5434 5415 5403 5400 5403 5403 5402 5406
5410 5389 5416 5416 5387 5360 5358 5391 5409 5401 5401 5397 5394 5381 5368 5359 5358 5373 5383 5380 5383 5381 5370 5369 5363 5348 5378 5384 5385 5384 5387 5375 5349 5365 5360 5363 5399 5417 5400 5394 5394 5391 5391 5393 5394
5389 5390 5402 5401 5359 5333 5354 5387 5391 5386 5385 5383 5380 5381 5365 5339 5334 5340 5366 5365 5363 5361 5350 5353 5328 5301 5340 5359 5363 5360 5365 5355 5328 5314 5327 5326 5394 5389 5387 5379 5379 5382 5372 5375 5384
5378 5363 5368 5375 5369 5362 5341 5359 5365 5374 5371 5370 5368 5363 5346 5328 5333 5313 5347 5348 5349 5347 5351 5341 5319 5312 5320 5334 5323 5333 5344 5338 5300 5264 5275 5337 5329 5364 5372 5354 5363 5358 5363 5364 5366
5364 5357 5354 5338 5344 5357 5361 5355 5359 5347 5358 5357 5354 5351 5337 5299 5293 5293 5305 5326 5332 5336 5327 5312 5276 5286 5295 5301 5302 5314 5319 5311 5296 5274 5280 5343 5305 5341 5314 5323 5349 5338 5343 5346 5347
5360 5353 5341 5325 5354 5354 5350 5343 5350 5340 5343 5344 5327 5340 5317 5300 5307 5289 5285 5287 5306 5297 5295 5290 5270 5287 5262 5291 5290 5289 5315 5302 5306 5297 5282 5304 5308 5336 5336 5330 5322 5321 5323 5332 5333
5359 5358 5351 5344 5337 5328 5336 5337 5346 5340 5338 5341 5327 5313 5317 5314 5305 5309 5306 5307 5299 5287 5276 5264 5253 5231 5245 5279 5258 5248 5303 5295 5295 5275 5273 5267 5307 5302 5301 5304 5293 5301 5306 5306 5315